Total_Precipitation_Accumulation
1.75 1.97 2.53 3.23 3.63 4.17 4.67 4.68 4.49 4.57 4.67 4.70 4.49 4.64 4.83 5.14 5.45 5.41 5.30 5.17 5.02 4.93 5.04 5.08 5.07 4.91 4.86 4.79 4.69 4.69 4.62 4.32 4.15 4.21 3.84 3.30 2.85 2.61 2.51 2.51 2.61 2.59 2.52
1.96 2.28 2.81 3.17 3.54 3.90 4.16 4.47 4.63 4.67 4.47 4.84 5.14 5.43 5.78 5.84 6.14 6.39 6.41 6.18 5.87 5.68 5.52 5.55 5.22 4.92 4.83 4.72 4.62 4.54 4.40 4.02 3.92 4.01 4.05 3.49 3.00 2.42 2.09 2.17 2.19 2.26 2.41
2.23 2.62 2.98 3.13 3.35 3.70 4.05 4.39 4.75 4.88 4.82 5.31 5.85 6.30 6.70 6.63 6.69 6.65 6.61 6.53 6.09 5.77 5.56 5.31 5.14 4.95 4.78 4.61 4.59 4.50 4.39 4.08 3.89 3.86 4.11 3.87 3.32 2.71 2.35 2.10 2.10 2.21 2.33
2.06 2.41 2.75 3.19 3.17 3.42 3.83 4.17 4.60 5.03 5.35 5.76 6.26 6.79 7.14 7.38 7.21 6.88 6.60 6.22 5.73 5.40 5.04 4.84 4.89 4.77 4.56 4.36 4.04 3.93 3.97 3.96 3.77 3.69 3.55 3.47 3.32 3.11 2.76 2.42 2.36 2.38 2.37
1.98 2.19 2.34 2.69 2.97 3.19 3.55 4.00 4.36 4.78 5.43 6.21 6.78 7.32 7.67 7.69 7.15 6.56 6.01 5.53 5.10 4.76 4.52 4.44 4.54 4.43 4.19 4.00 3.73 3.56 3.39 3.38 3.49 3.52 3.42 3.27 3.13 2.89 2.76 2.58 2.44 2.40 2.31
2.03 2.19 2.32 2.63 2.86 2.98 3.23 3.74 4.31 4.68 5.25 6.03 6.64 7.00 7.18 7.12 6.68 6.04 5.49 5.02 4.56 4.18 3.86 3.67 3.59 3.52 3.36 3.25 3.22 3.19 3.13 3.14 3.22 3.26 3.20 3.10 2.99 2.89 2.87 2.72 2.47 2.41 2.40
2.23 2.22 2.23 2.34 2.61 2.79 3.06 3.50 4.00 4.51 4.88 5.34 5.85 5.92 6.01 5.76 5.36 5.16 4.85 4.32 3.88 3.51 3.17 2.98 2.87 2.86 2.81 2.74 2.79 2.86 2.89 2.87 2.94 2.91 2.89 2.83 2.66 2.65 2.81 2.92 2.73 2.55 2.39
2.08 2.13 2.10 2.32 2.65 2.93 3.19 3.44 3.70 4.05 4.41 4.57 4.72 4.59 4.47 4.39 4.24 4.03 3.67 3.31 3.03 2.82 2.72 2.64 2.48 2.44 2.47 2.46 2.63 2.61 2.53 2.56 2.59 2.52 2.60 2.59 2.50 2.53 2.64 2.77 2.99 2.97 2.67
1.89 1.98 2.11 2.40 2.67 2.93 3.10 3.33 3.48 3.58 3.58 3.59 3.66 3.62 3.53 3.41 3.34 3.24 2.94 2.67 2.51 2.33 2.31 2.28 2.21 2.11 2.06 2.06 2.11 2.11 2.14 2.25 2.20 2.22 2.23 2.23 2.29 2.39 2.44 2.54 2.84 3.13 3.04
1.95 1.98 2.13 2.38 2.41 2.48 2.68 2.91 3.03 3.17 3.15 3.01 2.92 3.01 2.94 2.76 2.60 2.45 2.34 2.19 2.08 2.03 2.03 1.94 1.88 1.89 1.90 1.84 1.78 1.76 1.82 1.90 1.95 2.01 2.00 1.97 2.00 2.14 2.17 2.25 2.45 2.75 2.99
2.05 2.00 2.13 2.24 2.12 2.05 2.09 2.23 2.41 2.71 2.75 2.66 2.55 2.58 2.52 2.39 2.24 2.13 2.04 2.02 1.90 1.86 1.80 1.78 1.77 1.66 1.63 1.68 1.71 1.68 1.71 1.84 1.85 1.81 1.83 1.84 1.92 2.04 2.04 2.09 2.21 2.39 2.61
2.11 2.01 2.05 2.10 2.03 1.92 1.83 1.94 2.10 2.18 2.19 2.22 2.30 2.38 2.30 2.22 2.10 2.03 2.01 1.97 1.83 1.77 1.75 1.73 1.69 1.51 1.44 1.59 1.66 1.62 1.59 1.72 1.73 1.70 1.77 1.77 1.82 1.90 1.95 2.06 2.17 2.32 2.50
2.31 2.22 2.07 2.01 1.99 1.86 1.84 1.92 1.99 1.96 1.89 1.89 1.91 1.98 1.98 1.94 1.91 1.73 1.70 1.71 1.69 1.66 1.64 1.53 1.52 1.46 1.40 1.46 1.48 1.48 1.45 1.49 1.56 1.59 1.67 1.72 1.82 1.82 1.86 1.93 1.99 2.12 2.23
2.29 2.12 2.07 2.01 1.88 1.78 1.82 1.91 1.87 1.75 1.79 1.81 1.88 1.85 1.85 1.89 1.91 1.80 1.68 1.60 1.57 1.56 1.53 1.45 1.40 1.39 1.35 1.23 1.19 1.22 1.30 1.39 1.37 1.35 1.47 1.55 1.63 1.67 1.78 1.77 1.84 1.94 2.14
2.26 2.13 2.03 1.93 1.76 1.64 1.66 1.65 1.62 1.57 1.60 1.66 1.74 1.80 1.75 1.69 1.70 1.74 1.61 1.41 1.34 1.30 1.39 1.32 1.26 1.28 1.19 1.04 1.07 1.13 1.13 1.24 1.27 1.25 1.29 1.32 1.38 1.40 1.45 1.44 1.62 1.83 2.02
2.37 2.25 2.13 2.00 1.80 1.67 1.60 1.57 1.47 1.39 1.45 1.50 1.64 1.72 1.68 1.62 1.56 1.59 1.55 1.48 1.41 1.37 1.34 1.32 1.27 1.18 1.00 1.00 0.97 0.99 1.05 1.14 1.25 1.32 1.29 1.19 1.16 1.13 1.07 1.13 1.27 1.51 1.78
2.31 2.24 2.20 2.06 1.88 1.78 1.70 1.75 1.57 1.38 1.47 1.52 1.52 1.57 1.62 1.67 1.63 1.57 1.55 1.55 1.56 1.53 1.42 1.28 1.24 1.17 1.06 0.98 0.82 0.79 0.88 1.10 1.24 1.33 1.32 1.09 0.99 1.10 1.08 1.12 1.13 1.24 1.40
2.43 2.38 2.24 2.06 1.83 1.67 1.60 1.59 1.56 1.46 1.51 1.50 1.43 1.44 1.45 1.49 1.50 1.54 1.56 1.55 1.54 1.50 1.42 1.28 1.23 1.17 0.98 0.87 0.75 0.75 0.81 0.99 1.02 1.05 1.15 1.20 1.19 1.10 1.14 1.16 1.25 1.31 1.41
2.33 2.27 2.08 1.95 1.86 1.69 1.61 1.53 1.48 1.51 1.45 1.35 1.28 1.24 1.21 1.28 1.31 1.37 1.46 1.56 1.56 1.45 1.32 1.22 1.18 1.12 0.98 0.89 0.82 0.84 0.87 0.96 0.91 0.86 0.91 0.97 1.02 1.00 1.06 1.17 1.38 1.44 1.54
1.82 1.78 1.70 1.65 1.64 1.53 1.51 1.51 1.49 1.48 1.40 1.27 1.17 1.11 1.14 1.23 1.28 1.31 1.43 1.50 1.54 1.39 1.20 1.12 1.13 1.08 1.02 0.90 0.75 0.73 0.76 0.90 0.92 0.95 0.99 0.91 0.79 0.84 0.94 1.16 1.44 1.62 1.66
1.63 1.54 1.46 1.53 1.52 1.38 1.40 1.45 1.44 1.37 1.23 1.14 1.13 1.16 1.18 1.27 1.28 1.38 1.48 1.43 1.31 1.29 1.19 1.13 1.13 1.02 0.90 0.78 0.65 0.63 0.67 0.81 0.89 0.92 0.98 0.97 0.81 0.72 0.79 1.01 1.25 1.45 1.51
1.70 1.59 1.52 1.47 1.42 1.40 1.45 1.48 1.43 1.23 1.12 1.11 1.17 1.23 1.21 1.14 1.12 1.32 1.44 1.39 1.33 1.27 1.22 1.17 1.11 0.97 0.83 0.71 0.62 0.54 0.51 0.56 0.77 0.97 0.98 0.96 0.90 0.83 0.89 1.02 1.18 1.32 1.51
1.66 1.61 1.53 1.45 1.39 1.37 1.42 1.42 1.28 1.06 1.00 1.10 1.25 1.30 1.24 1.27 1.25 1.25 1.30 1.37 1.38 1.25 1.14 1.11 1.04 0.94 0.86 0.75 0.59 0.51 0.47 0.50 0.62 0.83 0.91 0.88 0.83 0.91 1.11 1.24 1.34 1.50 1.73
1.44 1.38 1.34 1.30 1.24 1.18 1.15 1.14 1.03 0.98 1.06 1.17 1.26 1.28 1.27 1.34 1.34 1.26 1.11 1.08 1.09 1.06 0.99 0.95 0.88 0.87 0.88 0.73 0.61 0.59 0.55 0.57 0.63 0.77 0.93 0.98 0.98 1.12 1.29 1.43 1.52 1.64 1.76
1.33 1.25 1.18 1.11 1.01 0.97 0.93 0.87 0.85 0.87 1.01 1.11 1.17 1.18 1.18 1.22 1.28 1.19 1.04 0.96 0.88 0.83 0.81 0.75 0.67 0.72 0.72 0.60 0.56 0.51 0.54 0.62 0.68 0.77 0.94 1.08 1.12 1.22 1.36 1.48 1.54 1.59 1.61
1.19 1.20 1.08 1.01 0.92 0.88 0.88 0.82 0.78 0.81 0.94 1.01 1.00 0.94 0.97 1.00 1.01 1.04 0.99 0.79 0.63 0.55 0.51 0.51 0.50 0.47 0.46 0.44 0.42 0.43 0.49 0.57 0.68 0.81 1.08 1.18 1.16 1.20 1.26 1.37 1.47 1.47 1.46